Mayport NS, FL

12:23 AM EDT on May 26, 2017 (GMT -0400)
Mayport Naval Station / Adm. David L. McDonald Field

Weather History for KNRB - March, 2013

Change the Weather History Date:

Thursday, March 14, 2013

  Actual Average Record
Temperature  
Mean Temperature 48 °F -  
Max Temperature 54 °F 68 °F 86 °F (2016)
Min Temperature 42 °F 54 °F 37 °F (1998)
Degree Days  
Heating Degree Days 17    
Moisture  
Dew Point 32 °F    
Average Humidity 55    
Maximum Humidity 85    
Minimum Humidity 41    
Precipitation  
Precipitation 0.00 in - - ()
Sea Level Pressure  
Sea Level Pressure 30.25 in    
Wind  
Wind Speed 5 mph (North)    
Max Wind Speed 13 mph    
Max Gust Speed 23 mph    
Visibility 10 miles    
Events      
Averages and records for this station are not official NWS values.
T = Trace of Precipitation, MM = Missing Value Source: NWS Daily Summary

Daily Weather History Graph

Daily Weather History Graph

Search for Another Location

Airport or City:

Trip Planner

Search our weather history database for the weather conditions in past years. The results will help you decide how hot, cold, wet, or windy it might be!

Date:

Astronomy

Mar. 14, 2013 Rise Set
Actual Time 7:36 AM EDT 7:33 PM EDT
Civil Twilight 7:12 AM EDT 7:57 PM EDT
Nautical Twilight 6:44 AM EDT 8:25 PM EDT
Astronomical Twilight 6:16 AM EDT 8:53 PM EDT
Moon 9:04 AM EDT (3/14) 10:31 PM EDT (3/14)
Length of Visible Light 12h 44m
Length of Day
11h 56m
Waxing Crescent, 9% of the Moon is Illuminated
Mar 14
Waxing Crescent
Mar 19
First Quarter
Mar 27
Full
Apr 3
Last Quarter
Apr 10
New

Hourly Weather History & Observations

Time (EDT) Temp. Windchill Dew Point Humidity Pressure Visibility Wind Dir Wind Speed Gust Speed Precip Events Conditions
12:52 AM 54.0 °F - 34.0 °F 47% 30.18 in 10.0 mi Variable 3.5 mph - N/A   Clear
1:52 AM 53.1 °F - 30.0 °F 41% 30.17 in 10.0 mi NW 5.8 mph - N/A   Clear
2:52 AM 51.1 °F - 30.0 °F 44% 30.18 in 10.0 mi Variable 3.5 mph - N/A   Clear
3:52 AM 48.0 °F - 32.0 °F 54% 30.19 in 10.0 mi Variable 5.8 mph - N/A   Clear
4:52 AM 46.0 °F 43.9 °F 30.9 °F 56% 30.20 in 10.0 mi Variable 4.6 mph - N/A   Clear
5:52 AM 44.1 °F 40.8 °F 30.9 °F 60% 30.22 in 10.0 mi NW 5.8 mph - N/A   Clear
6:03 AM 44.6 °F 43.1 °F 30.2 °F 57% 30.22 in 10.0 mi Variable 3.5 mph - N/A   Partly Cloudy
6:52 AM 43.0 °F 40.3 °F 30.9 °F 62% 30.25 in 10.0 mi Variable 4.6 mph - N/A   Clear
7:52 AM 42.1 °F 40.2 °F 30.0 °F 62% 30.27 in 10.0 mi NW 3.5 mph - N/A   Partly Cloudy
8:52 AM 45.0 °F 40.1 °F 28.9 °F 53% 30.30 in 10.0 mi NNW 9.2 mph - N/A   Clear
9:52 AM 48.0 °F - 28.0 °F 46% 30.31 in 10.0 mi North 11.5 mph 16.1 mph N/A   Clear
10:52 AM 48.9 °F - 28.0 °F 44% 30.32 in 10.0 mi North 9.2 mph 19.6 mph N/A   Clear
11:52 AM 51.1 °F - 30.0 °F 44% 30.31 in 10.0 mi NNE 12.7 mph 23.0 mph N/A   Clear
12:52 PM 52.0 °F - 30.9 °F 45% 30.31 in 10.0 mi NNE 11.5 mph 19.6 mph N/A   Clear
1:52 PM 53.1 °F - 30.9 °F 43% 30.29 in 10.0 mi NNE 11.5 mph - N/A   Clear
2:52 PM 54.0 °F - 32.0 °F 43% 30.26 in 10.0 mi NE 9.2 mph - N/A   Clear
3:52 PM 53.1 °F - 32.0 °F 45% 30.25 in 10.0 mi NE 8.1 mph - N/A   Clear
4:52 PM 54.0 °F - 33.1 °F 45% 30.23 in 10.0 mi NE 9.2 mph - N/A   Clear
5:52 PM 53.1 °F - 34.0 °F 48% 30.23 in 10.0 mi NE 8.1 mph - N/A   Clear
6:52 PM 51.1 °F - 35.1 °F 54% 30.22 in 10.0 mi East 4.6 mph - N/A   Clear
7:52 PM 48.9 °F - 34.0 °F 56% 30.22 in 10.0 mi Calm Calm - N/A   Clear
8:52 PM 45.0 °F - 37.0 °F 74% 30.24 in 10.0 mi Calm Calm - N/A   Clear
9:52 PM 45.0 °F - 37.9 °F 76% 30.26 in 10.0 mi Calm Calm - N/A   Clear
10:52 PM 44.1 °F - 37.9 °F 79% 30.26 in 10.0 mi Calm Calm - N/A   Clear
11:52 PM 44.1 °F - 39.9 °F 85% 30.26 in 10.0 mi Calm Calm - N/A   Clear